This demonstration page uses our WeatherBlox Daily Observations layout. Learn more.

Left ArrowRight Arrow

Hourly Observations for February 20, 2015

Temp ( °F °C ) Dew Point ( °F °C ) Humidity (%) Winds ( mph kmh ) Pressure ( in mb ) Visibility ( mi km ) Precip ( " mm )
12:53 am 00:53 Clear 48 8.9 38 3.3 68 68 SE 6 9 29.82 1010 10 16 0.00 0.00
1:53 am 01:53 Clear 47 8.3 38 3.3 71 71 ESE 6 9 29.81 1010 10 16 0.00 0.00
2:53 am 02:53 Clear 44 6.7 37 2.8 76 76 SE 6 9 29.80 1009 10 16 0.00 0.00
3:53 am 03:53 Clear 43 6.1 37 2.8 80 80 SE 7 11 29.78 1008 10 16 0.00 0.00
4:53 am 04:53 Clear 41 5 36 2.2 82 82 SE 7 11 29.77 1008 10 16 0.00 0.00
5:53 am 05:53 Clear 39 3.9 35 1.7 86 86 Calm 29.78 1009 10 16 0.00 0.00
6:53 am 06:53 Clear 36 2.2 32 0 86 86 N 6 9 29.80 1009 10 16 0.00 0.00
7:53 am 07:53 Sunny 36 2.2 31 -0.6 82 82 NNW 6 9 29.82 1010 10 16 0.00 0.00
8:53 am 08:53 Sunny 46 7.8 38 3.3 73 73 N 5 7 29.83 1010 10 16 0.00 0.00
9:53 am 09:53 Sunny 55 12.8 40 4.4 57 57 Calm 29.81 1009 10 16 0.00 0.00
10:53 am 10:53 Sunny 67 19.4 34 1.1 30 30 W 5 7 29.78 1008 10 16 0.00 0.00
11:53 am 11:53 Sunny 74 23.3 25 -3.9 16 16 W 13 20 29.76 1008 10 16 0.00 0.00
12:53 pm 12:53 Sunny 77 25 17 -8.3 10 10 W 21 33 29.72 1006 10 16 0.00 0.00
1:53 pm 13:53 Sunny 77 25 15 -9.4 9 9 W 22 35 29.68 1005 10 16 0.00 0.00
2:53 pm 14:53 Sunny 78 25.6 17 -8.3 10 10 W 20 31 29.65 1004 10 16 0.00 0.00
3:53 pm 15:53 Sunny 78 25.6 16 -8.9 9 9 WSW 15 24 29.64 1004 10 16 0.00 0.00
4:53 pm 16:53 Sunny 79 26.1 13 -10.6 8 8 WSW 23 37 29.62 1003 10 16 0.00 0.00
5:53 pm 17:53 Sunny 76 24.4 12 -11.1 9 9 W 17 28 29.64 1004 10 16 0.00 0.00
6:53 pm 18:53 Clear 72 22.2 13 -10.6 10 10 W 16 26 29.67 1005 10 16 0.00 0.00
7:53 pm 19:53 Clear 69 20.6 14 -10 12 12 W 13 20 29.69 1005 10 16 0.00 0.00
8:53 pm 20:53 Clear 68 20 17 -8.3 14 14 WSW 12 19 29.68 1005 10 16 0.00 0.00
9:53 pm 21:53 Clear 66 18.9 19 -7.2 16 16 W 13 20 29.67 1005 10 16 0.00 0.00
10:53 pm 22:53 Clear 67 19.4 18 -7.8 15 15 WSW 13 20 29.66 1004 10 16 0.00 0.00
11:53 pm 23:53 Clear 65 18.3 19 -7.2 17 17 WSW 13 20 29.66 1004 10 16 0.00 0.00

Powered by AerisWeather